Location: Bamobli
(6.6379°N, 10.9396°W)
Time: 03:42:00
(UTC+00:00)

Atlas Centaur 2 - Pass Details

Date: 08 October 2020
Orbit: 459 x 1310 km, 30.4° (Epoch: 30 October)

Event Time Altitude Azimuth Distance (km) Brightness Sun altitude
Rises 20:18:17 0° 203° (SSW) 4,124 6.1 -27.2°
Reaches altitude 10° 20:24:18 10° 169° (S) 2,954 4.9 -28.7°
Enters shadow 20:25:02 11° 164° (SSE) 2,883 4.8 -28.9°
